Location: Newark
(48.2308°N, 120.8549°W)
Time: 05:19:36
(UTC+00:00)

Transit 4A - Visible Passes

Search period start: 06 June 2020 00:00
Search period end: 16 June 2020 00:00
Orbit: 868 x 976 km, 66.8° (Epoch: 05 June)

Date Brightness Start Highest point End Pass type
(mag) Time Alt. Az. Time Alt. Az. Time Alt. Az.
06 Jun 9.7 06:30:32 11° ESE 06:31:25 11° E 06:33:08 10° E visible
06 Jun 7.8 08:14:01 34° S 08:16:35 67° ESE 08:22:30 10° NE visible
06 Jun 9.2 09:58:15 10° W 10:03:25 31° NW 10:08:43 10° NNE visible
07 Jun 9.3 06:39:12 17° ESE 06:40:22 18° ESE 06:44:07 10° ENE visible
07 Jun 7.8 08:22:41 28° SW 08:25:53 88° NW 08:31:53 10° NE visible
07 Jun 9.6 10:08:17 10° W 10:13:05 25° NNW 10:17:59 10° NNE visible
08 Jun 8.9 06:47:49 23° SE 06:49:23 26° ESE 06:54:08 10° NE visible
08 Jun 8.1 08:31:17 21° SW 08:35:15 65° NW 08:41:13 10° NNE visible
08 Jun 9.9 10:18:28 10° WNW 10:22:49 21° NNW 10:27:14 10° NNE visible
09 Jun 8.4 06:56:20 28° SSE 06:58:28 37° ESE 07:03:52 10° NE visible
09 Jun 8.6 08:39:48 14° WSW 08:44:43 48° NW 08:50:31 10° NNE visible
09 Jun 10.1 10:28:45 10° WNW 10:32:37 17° NNW 10:36:33 10° NNE visible
10 Jun 8.0 07:04:47 28° S 07:07:39 53° ESE 07:13:25 10° NE visible
10 Jun 9.1 08:48:51 10° WSW 08:54:14 37° NW 08:59:47 10° NNE visible
10 Jun 10.3 10:39:04 10° NW 10:42:28 15° NNW 10:45:55 10° NNE visible
11 Jun 9.5 05:29:40 12° ESE 05:31:35 13° ESE 05:34:18 10° ENE visible
11 Jun 7.7 07:13:08 23° SSW 07:16:53 76° ESE 07:22:51 10° NE visible
11 Jun 9.5 08:58:47 10° W 09:03:51 29° NW 09:09:02 10° NNE visible
11 Jun 10.4 10:49:22 10° NW 10:52:22 14° N 10:55:24 10° NNE visible
12 Jun 9.1 05:37:54 15° SE 05:40:34 20° ESE 05:44:44 10° ENE visible
12 Jun 7.9 07:21:20 15° SW 07:26:12 79° NW 07:32:13 10° NNE visible
12 Jun 9.9 09:08:53 10° W 09:13:32 23° NNW 09:18:17 10° NNE visible
12 Jun 10.5 10:59:32 10° NNW 11:02:18 13° N 11:05:05 10° NNE visible
13 Jun 8.7 05:45:57 16° SSE 05:49:36 29° ESE 05:54:39 10° NE visible
13 Jun 8.3 07:29:51 10° SW 07:35:36 58° NW 07:41:32 10° NNE visible
13 Jun 10.2 09:19:06 10° WNW 09:23:18 19° NNW 09:27:34 10° NNE visible
13 Jun 10.6 11:09:29 10° NNW 11:12:14 13° N 11:15:01 10° NNE visible
14 Jun 8.2 05:53:46 12° S 05:58:43 42° ESE 06:04:17 10° NE visible
14 Jun 8.9 07:39:31 10° WSW 07:45:05 43° NW 07:50:49 10° NNE visible
14 Jun 10.4 09:29:24 10° WNW 09:33:07 17° NNW 09:36:54 10° NNE visible
14 Jun 10.6 11:19:13 10° NNW 11:22:11 14° N 11:25:10 10° NE visible
15 Jun 7.8 06:02:12 10° SSW 06:07:55 61° ESE 06:13:48 10° NE visible
15 Jun 9.4 07:49:21 10° WSW 07:54:39 33° NW 08:00:05 10° NNE visible
15 Jun 10.5 09:39:43 10° NW 09:42:59 15° NNW 09:46:18 10° NNE visible
